EW4138 Weather Reports


Display with metric or nautical units.
time (UTC)temp
F
wind
direction
speed
MPH
gust
MPH
rain 1hr
in
rain 24hr
in
rain mn
in
humidity
%
barometer
mb
20260505233903 56 15 2.0 9.0 0.20 0.46 0.21 95 1005.3
20260505233705 56 19 0.0 5.0 0.19 0.44 0.19 95 1005.6
20260505232903 56 356 0.0 0.0 0.17 0.43 0.17 95 1005.8
20260505232405 56 356 0.0 0.0 0.15 0.40 0.15 95 1006.0
20260505231904 56 343 0.0 0.0 0.13 0.39 0.13 94 1006.0
20260505231404 56 205 0.0 4.0 0.12 0.37 0.13 94 1006.2
20260505231220 56 205 1.0 7.0 0.09 0.35 0.09 94 1006.3
20260505230405 56 173 1.0 7.0 0.04 0.29 0.04 94 1006.4
20260505225903 56 200 0.0 4.0 0.02 0.26 0.02 94 1006.3
20260505225403 56 165 1.0 7.0 0.03 0.26 0.02 94 1005.8
20260505224901 56 2 2.0 7.0 0.04 0.26 0.02 94 1005.2
20260505224401 56 5 2.0 7.0 0.05 0.26 0.02 94 1005.2
20260505223901 56 16 2.0 8.0 0.15 0.26 0.02 94 1005.2
20260505223648 56 1 3.0 9.0 0.20 0.25 0.01 94 1005.2
20260505222850 56 11 2.0 9.0 0.20 0.25 0.01 94 1005.2
20260505222351 56 14 1.0 8.0 0.20 0.25 0.01 94 1005.2
20260505221855 56 336 1.0 7.0 0.22 0.25 0.01 93 1005.2
20260505221349 56 345 3.0 8.0 0.23 0.25 0.01 93 1005.2
20260505220849 56 0 3.0 9.0 0.23 0.25 0.01 93 1005.2
20260505220345 56 342 2.0 9.0 0.23 0.25 0.00 93 1005.3
20260505215836 57 12 2.0 7.0 0.22 0.24 0.24 93 1005.6
20260505215334 57 359 2.0 7.0 0.20 0.22 0.22 93 1005.7
20260505215129 57 8 2.0 8.0 0.19 0.21 0.21 92 1005.6
20260505214333 57 1 1.0 8.0 0.19 0.21 0.21 92 1005.7
20260505213834 58 1 0.0 5.0 0.07 0.09 0.09 92 1006.1
20260505213333 58 71 1.0 6.0 0.03 0.06 0.05 91 1006.2
20260505213133 58 13 1.0 7.0 0.02 0.05 0.05 91 1005.9
20260505212336 58 24 3.0 8.0 0.02 0.05 0.05 90 1006.0
20260505211833 58 32 3.0 8.0 0.01 0.03 0.03 89 1005.8
20260505211334 58 13 3.0 8.0 0.00 0.02 0.02 89 1005.7
20260505210833 58 26 3.0 8.0 0.00 0.02 0.02 89 1005.8
20260505210334 58 32 3.0 8.0 0.00 0.02 0.02 89 1005.9
20260505205832 59 58 2.0 9.0 0.00 0.02 0.02 89 1005.8
20260505205332 59 40 1.0 9.0 0.00 0.02 0.02 89 1005.7
20260505204832 59 18 2.0 10.0 0.00 0.02 0.02 89 1005.6
20260505204335 59 37 3.0 10.0 0.00 0.02 0.02 89 1005.5
20260505203828 59 26 1.0 8.0 0.00 0.02 0.02 89 1005.5
20260505203317 59 49 1.0 8.0 0.00 0.02 0.02 89 1005.4
20260505203107 59 18 2.0 7.0 0.00 0.02 0.02 89 1005.4
20260505202308 59 22 2.0 8.0 0.00 0.02 0.02 89 1005.4
20260505201801 60 1 2.0 8.0 0.00 0.02 0.02 88 1005.4
20260505201257 60 1 1.0 6.0 0.00 0.02 0.02 88 1005.4
20260505200755 60 23 1.0 7.0 0.00 0.02 0.02 87 1005.4
20260505200404 60 56 3.0 9.0 0.00 0.02 0.02 87 1005.5
20260505195543 60 4 2.0 8.0 0.00 0.02 0.02 85 1005.5
20260505195026 61 13 1.0 6.0 0.00 0.02 0.02 84 1005.6
20260505194545 61 31 1.0 6.0 0.00 0.02 0.02 84 1005.6
20260505193738 61 43 0.0 6.0 0.00 0.02 0.02 83 1005.6
20260505193237 61 35 0.0 0.0 0.00 0.02 0.02 83 1005.6
20260505192733 61 46 0.0 0.0 0.00 0.02 0.02 82 1005.7
20260505192233 61 46 0.0 0.0 0.00 0.02 0.02 82 1005.6
20260505191733 61 46 0.0 0.0 0.00 0.02 0.02 82 1005.7
20260505191233 61 42 0.0 4.0 0.00 0.02 0.02 81 1005.8
20260505190727 61 41 0.0 4.0 0.00 0.02 0.02 81 1005.8
20260505190226 62 24 0.0 7.0 0.00 0.02 0.02 81 1005.8
20260505185719 62 44 0.0 7.0 0.00 0.02 0.02 81 1005.7
20260505185216 62 56 0.0 5.0 0.00 0.02 0.02 80 1005.8
20260505184711 62 56 0.0 5.0 0.00 0.02 0.02 80 1005.8
20260505184207 62 46 0.0 4.0 0.00 0.02 0.02 80 1005.8
20260505183659 62 56 0.0 3.0 0.00 0.02 0.02 80 1005.8
20260505183459 62 34 0.0 5.0 0.00 0.02 0.02 80 1005.7
20260505182657 62 32 1.0 6.0 0.00 0.02 0.02 80 1005.7
20260505182233 62 27 2.0 7.0 0.00 0.02 0.02 80 1005.7
20260505181149 63 53 0.0 5.0 0.00 0.02 0.02 80 1005.8
20260505180648 63 53 1.0 6.0 0.00 0.02 0.02 80 1005.9
20260505180147 63 38 1.0 6.0 0.00 0.02 0.02 81 1005.9
20260505175646 63 27 1.0 8.0 0.00 0.02 0.02 81 1005.9
20260505175140 63 24 1.0 8.0 0.00 0.02 0.02 81 1005.9
20260505174633 63 12 1.0 6.0 0.00 0.02 0.02 81 1005.9
20260505174432 63 26 1.0 5.0 0.00 0.02 0.02 81 1005.9
20260505173942 63 351 1.0 6.0 0.00 0.02 0.02 81 1006.1
20260505173134 63 359 1.0 6.0 0.00 0.02 0.02 81 1006.0
20260505172634 63 1 1.0 6.0 0.00 0.02 0.02 81 1006.1
20260505172134 64 338 1.0 6.0 0.00 0.02 0.02 80 1006.1
20260505171635 64 10 0.0 6.0 0.00 0.02 0.02 80 1006.0
20260505171128 64 17 0.0 6.0 0.00 0.02 0.02 81 1006.0
20260505170911 64 15 1.0 7.0 0.00 0.02 0.02 80 1005.9
20260505170117 64 340 1.0 7.0 0.00 0.02 0.02 79 1006.0
20260505165617 65 359 1.0 8.0 0.00 0.02 0.02 79 1006.1
20260505165111 65 16 2.0 8.0 0.00 0.02 0.02 78 1006.1
20260505164906 65 11 2.0 8.0 0.00 0.02 0.02 77 1006.1
20260505164106 65 2 1.0 8.0 0.00 0.02 0.02 77 1006.0
20260505163901 65 40 2.0 8.0 0.00 0.02 0.02 77 1006.1
20260505163405 65 4 2.0 8.0 0.00 0.02 0.02 76 1006.2
20260505162602 65 44 2.0 9.0 0.00 0.02 0.02 77 1006.2
20260505162101 65 22 2.0 9.0 0.00 0.02 0.02 77 1006.2
20260505161556 65 25 1.0 8.0 0.00 0.02 0.02 77 1006.3
20260505161055 65 3 1.0 8.0 0.00 0.02 0.02 78 1006.5
20260505160852 65 27 1.0 8.0 0.00 0.02 0.02 79 1006.4
20260505153035 64 8 1.0 6.0 0.00 0.02 0.02 78 1006.7
20260505152535 64 4 1.0 5.0 0.00 0.02 0.02 79 1006.6
20260505152036 64 13 1.0 5.0 0.00 0.02 0.02 79 1006.6
20260505151536 64 0 1.0 6.0 0.00 0.02 0.02 79 1006.7
20260505151031 64 68 2.0 7.0 0.00 0.02 0.02 78 1006.8
20260505150528 64 0 2.0 7.0 0.00 0.02 0.02 77 1006.8
20260505140311 65 359 2.0 8.0 0.00 0.02 0.02 80 1007.1
20260505124930 66 358 2.0 7.0 0.00 0.02 0.02 74 1007.5
20260505124430 67 339 2.0 9.0 0.00 0.02 0.02 73 1007.6
20260505123932 66 1 2.0 9.0 0.00 0.02 0.02 74 1007.6
20260505123432 66 6 2.0 7.0 0.00 0.02 0.02 76 1007.6
20260505122933 66 297 2.0 6.0 0.00 0.02 0.02 76 1007.6
20260505122432 65 322 2.0 6.0 0.00 0.02 0.02 77 1007.6
20260505121934 65 335 1.0 6.0 0.00 0.02 0.02 80 1007.6
20260505121433 65 359 1.0 6.0 0.00 0.02 0.02 80 1007.6
20260505120929 65 358 2.0 8.0 0.00 0.02 0.02 80 1007.7
20260505120427 65 302 3.0 10.0 0.00 0.02 0.02 78 1007.7
20260505120227 65 300 2.0 10.0 0.00 0.02 0.02 80 1007.7
20260505115421 65 301 3.0 9.0 0.00 0.02 0.02 80 1007.8
20260505114913 65 276 2.0 9.0 0.00 0.02 0.02 80 1007.8
20260505114405 65 314 2.0 9.0 0.00 0.02 0.02 81 1007.8
20260505113905 64 295 2.0 9.0 0.00 0.02 0.02 80 1007.8
20260505113405 65 313 2.0 6.0 0.00 0.02 0.02 80 1007.8
20260505112907 65 288 2.0 8.0 0.00 0.02 0.02 80 1007.7
20260505112405 65 356 2.0 8.0 0.00 0.02 0.02 79 1007.8
20260505111902 65 304 2.0 6.0 0.00 0.02 0.02 77 1007.8
20260505111705 65 323 2.0 8.0 0.00 0.02 0.02 77 1007.9
20260505111151 65 27 2.0 8.0 0.00 0.02 0.02 77 1007.9
20260505110349 65 319 2.0 9.0 0.00 0.02 0.02 78 1007.9
20260505101835 62 310 1.0 6.0 0.00 0.02 0.02 89 1008.1
20260505101333 61 9 1.0 5.0 0.00 0.02 0.02 90 1008.2
20260505100831 61 323 1.0 5.0 0.00 0.02 0.02 89 1008.1
20260505100332 61 335 1.0 5.0 0.00 0.02 0.02 89 1008.1
20260505100146 61 346 1.0 5.0 0.00 0.02 0.02 89 1008.2
20260505095333 61 6 1.0 5.0 0.00 0.02 0.02 90 1008.1
20260505095128 61 6 1.0 6.0 0.00 0.02 0.02 90 1008.1
20260505094330 60 4 1.0 6.0 0.00 0.02 0.02 90 1008.2
20260505093831 60 1 1.0 6.0 0.00 0.02 0.02 90 1008.3
20260505093334 60 355 0.0 4.0 0.00 0.02 0.02 90 1008.3
20260505092831 60 10 1.0 4.0 0.00 0.02 0.02 90 1008.3
20260505092629 60 10 1.0 4.0 0.00 0.02 0.02 90 1008.3
20260505091831 60 3 1.0 4.0 0.00 0.02 0.02 90 1008.5
20260505091632 61 340 1.0 4.0 0.00 0.02 0.02 90 1008.6
20260505090833 61 314 0.0 3.0 0.00 0.02 0.02 90 1008.5
20260505090641 61 314 0.0 4.0 0.00 0.02 0.02 90 1008.5
20260505085825 61 325 0.0 4.0 0.00 0.02 0.02 90 1008.5
20260505085325 61 295 0.0 3.0 0.00 0.02 0.02 89 1008.5
20260505085116 61 344 1.0 4.0 0.00 0.02 0.02 89 1008.5
20260505084322 61 315 0.0 4.0 0.00 0.02 0.02 88 1008.5
20260505084115 61 316 0.0 5.0 0.00 0.02 0.02 89 1008.5
20260505083306 61 316 0.0 5.0 0.01 0.02 0.02 89 1008.4
20260505082805 61 283 1.0 5.0 0.01 0.02 0.02 90 1008.4
20260505082305 61 0 0.0 5.0 0.01 0.02 0.02 90 1008.4
20260505081801 60 333 0.0 4.0 0.01 0.02 0.02 91 1008.4
20260505081301 60 317 0.0 4.0 0.01 0.02 0.02 91 1008.3
20260505080838 60 297 0.0 3.0 0.01 0.02 0.02 91 1008.4
20260505080117 60 5 0.0 0.0 0.01 0.02 0.02 92 1008.4
20260505075258 59 5 0.0 0.0 0.01 0.02 0.02 92 1008.5
20260505074753 59 5 0.0 0.0 0.01 0.02 0.02 91 1008.6
20260505074548 59 8 0.0 0.0 0.02 0.02 0.02 91 1008.7
20260505074039 59 8 0.0 0.0 0.02 0.02 0.02 90 1008.9
20260505073239 59 8 0.0 0.0 0.01 0.02 0.02 90 1009.0
20260505072738 59 8 0.0 0.0 0.01 0.02 0.02 89 1009.0
20260505072237 60 8 0.0 0.0 0.01 0.02 0.02 91 1009.0
20260505071735 59 8 0.0 0.0 0.01 0.02 0.02 90 1009.0
20260505071233 59 8 0.0 0.0 0.02 0.02 0.02 90 1008.9
20260505070731 59 8 0.0 0.0 0.02 0.02 0.02 90 1008.9
20260505070528 58 8 0.0 0.0 0.02 0.02 0.02 90 1008.9
20260505065732 58 8 0.0 0.0 0.02 0.02 0.02 90 1008.9
20260505065232 59 8 0.0 0.0 0.02 0.02 0.02 89 1008.9
20260505065041 59 9 0.0 0.0 0.02 0.02 0.02 89 1008.9
20260505064235 59 9 0.0 0.0 0.01 0.01 0.01 89 1008.8
20260505063734 59 8 0.0 0.0 0.01 0.01 0.01 89 1008.7
20260505063232 59 8 0.0 0.0 0.01 0.01 0.01 88 1008.8
20260505062731 59 8 0.0 0.0 0.01 0.01 0.01 87 1008.9
20260505062233 59 8 0.0 0.0 0.01 0.01 0.01 87 1008.9
20260505061734 59 8 0.0 0.0 0.01 0.01 0.01 87 1008.9
20260505061525 59 8 0.0 0.0 0.00 0.00 0.00 86 1008.8
20260505060735 59 8 0.0 0.0 0.00 0.00 0.00 86 1008.9
20260505060234 59 8 0.0 0.0 0.00 0.00 0.00 86 1008.9
20260505055736 59 9 0.0 0.0 0.00 0.00 0.00 85 1008.8
20260505055233 59 9 0.0 0.0 0.00 0.00 0.00 86 1008.8
20260505054734 59 9 0.0 0.0 0.00 0.00 0.00 85 1008.7
20260505054229 59 9 0.0 0.0 0.00 0.00 0.00 85 1008.7
20260505053730 59 9 0.0 0.0 0.00 0.00 0.00 85 1008.7
20260505053229 59 1 0.0 2.0 0.00 0.00 0.00 85 1008.6
20260505052719 59 13 0.0 2.0 0.00 0.00 0.00 85 1008.5
20260505052211 59 359 0.0 4.0 0.00 0.00 0.00 85 1008.5
20260505051711 59 17 0.0 4.0 0.00 0.00 0.00 85 1008.5
20260505051210 58 1 0.0 1.0 0.00 0.00 0.00 85 1008.5
20260505051013 58 1 0.0 5.0 0.00 0.00 0.00 86 1008.4
20260505050205 58 18 0.0 5.0 0.00 0.00 0.00 86 1008.3
20260505041500 58 17 1.0 6.0 0.00 0.00 0.00 86 1008.6
20260505040704 58 18 1.0 6.0 0.00 0.00 0.00 86 1008.6
20260505040458 58 39 0.0 3.0 0.00 0.00 0.00 86 1008.6
20260505035652 58 359 0.0 0.0 0.00 0.00 0.00 86 1008.7
20260505035151 58 359 0.0 0.0 0.00 0.00 0.00 86 1008.8
20260505034651 58 359 0.0 0.0 0.00 0.00 0.00 86 1008.8
20260505034151 58 359 0.0 0.0 0.00 0.00 0.00 86 1008.7
20260505033934 58 28 0.0 0.0 0.00 0.00 0.00 86 1008.7
20260505033138 58 33 0.0 0.0 0.00 0.00 0.00 86 1008.8
20260505032637 58 34 0.0 0.0 0.00 0.00 0.00 87 1008.8
20260505032134 58 34 0.0 0.0 0.00 0.00 0.00 87 1008.9
20260505031634 58 34 0.0 0.0 0.00 0.00 0.00 87 1009.0
20260505031132 58 34 0.0 0.0 0.00 0.00 0.00 87 1009.0
20260505030920 58 34 0.0 0.0 0.00 0.00 0.00 86 1009.0
20260505030132 58 34 0.0 0.0 0.00 0.00 0.00 87 1009.1
20260505025710 58 34 0.0 0.0 0.00 0.00 0.00 86 1009.2
20260505024635 58 34 0.0 0.0 0.00 0.00 0.00 85 1009.3
20260505024134 58 34 0.0 0.0 0.00 0.00 0.00 85 1009.3
20260505023627 58 34 0.0 0.0 0.00 0.00 0.00 85 1009.3
20260505023117 58 34 0.0 0.0 0.00 0.00 0.00 85 1009.4
20260505022609 58 34 0.0 0.0 0.00 0.00 0.00 85 1009.3
20260505022356 58 34 0.0 0.0 0.00 0.00 0.00 86 1009.3
20260505021608 58 34 0.0 0.0 0.00 0.00 0.00 86 1009.3
20260505021109 58 34 0.0 0.0 0.00 0.00 0.00 85 1009.4
20260505020609 58 34 0.0 0.0 0.00 0.00 0.00 85 1009.3
20260505020109 58 34 0.0 0.0 0.00 0.00 0.00 85 1009.4
20260505015603 58 34 0.0 0.0 0.00 0.00 0.00 85 1009.5
20260505015159 58 34 0.0 0.0 0.00 0.00 0.00 85 1009.5
20260505014103 58 34 0.0 0.0 0.00 0.00 0.00 85 1009.7
20260505013556 58 34 0.0 0.0 0.00 0.00 0.00 85 1009.7
20260505013050 58 34 0.0 0.0 0.00 0.00 0.00 85 1009.7
20260505012542 58 34 0.0 0.0 0.00 0.00 0.00 84 1009.8
20260505012040 58 34 0.0 0.0 0.00 0.00 0.00 85 1009.8
20260505011541 58 34 0.0 0.0 0.00 0.00 0.00 85 1009.8
20260505011035 58 34 0.0 0.0 0.00 0.00 0.00 85 1009.8
20260505010536 58 34 0.0 0.0 0.00 0.00 0.00 86 1009.9
20260505010033 58 34 0.0 0.0 0.00 0.00 0.00 85 1009.9
20260505005531 58 34 0.0 0.0 0.00 0.00 0.00 85 1009.9
20260505005324 58 34 0.0 0.0 0.00 0.00 0.00 85 1010.0
20260505004531 58 34 0.0 0.0 0.00 0.00 0.00 85 1010.0
20260505004031 58 34 0.0 0.0 0.00 0.00 0.00 85 1010.0
20260505003529 58 34 0.0 0.0 0.00 0.00 0.00 85 1010.1
20260505003317 58 34 0.0 0.0 0.00 0.00 0.00 85 1010.2
20260505002525 58 34 0.0 0.0 0.00 0.00 0.00 85 1010.3
20260505002025 59 34 0.0 0.0 0.00 0.00 0.00 85 1010.3
20260505001519 59 34 0.0 0.0 0.00 0.00 0.00 85 1010.3
20260505001005 59 34 0.0 0.0 0.00 0.00 0.00 85 1010.3
20260505000504 59 34 0.0 0.0 0.00 0.00 0.00 85 1010.3
20260505000007 59 34 0.0 0.0 0.00 0.00 0.00 84 1010.4
20260504235501 59 34 0.0 0.0 0.00 0.00 0.00 84 1010.4
20260504234957 60 34 0.0 0.0 0.00 0.00 0.00 83 1010.5
20260504234748 60 34 0.0 0.0 0.00 0.00 0.00 83 1010.5
20260504233950 60 34 0.0 0.0 0.00 0.00 0.00 83 1010.5